GW5249 Weather Reports


Display with metric or nautical units.
time (UTC)temp
F
wind
direction
speed
MPH
gust
MPH
rain 1hr
in
rain 24hr
in
rain mn
in
humidity
%
barometer
mb
20260510152814 74 350 1.0 2.0 0.00 0.00 0.00 55 1013.5
20260510152308 74 12 2.0 3.0 0.00 0.00 0.00 56 1013.3
20260510151803 73 100 0.0 4.0 0.00 0.00 0.00 58 1013.7
20260510151301 73 3 0.0 3.0 0.00 0.00 0.00 61 1013.6
20260510150755 73 4 2.0 3.0 0.00 0.00 0.00 58 1013.9
20260510150252 72 3 0.0 3.0 0.00 0.00 0.00 58 1014.0
20260510145747 72 7 1.0 2.0 0.00 0.00 0.00 64 1013.9
20260510145244 71 7 0.0 1.0 0.00 0.00 0.00 62 1013.6
20260510144740 70 7 1.0 2.0 0.00 0.00 0.00 64 1013.8
20260510144238 69 7 1.0 1.0 0.00 0.00 0.00 65 1014.0
20260510143732 68 350 1.0 2.0 0.00 0.00 0.00 68 1014.0
20260510143229 67 49 0.0 1.0 0.00 0.00 0.00 71 1013.9
20260510142725 67 49 0.0 1.0 0.00 0.00 0.00 73 1013.9
20260510142222 68 49 2.0 2.0 0.00 0.00 0.00 72 1013.6
20260510141719 69 49 1.0 2.0 0.00 0.00 0.00 69 1013.7
20260510141218 68 49 1.0 1.0 0.00 0.00 0.00 73 1013.6
20260510140714 67 49 0.0 2.0 0.00 0.00 0.00 75 1013.9
20260510140213 66 49 1.0 2.0 0.00 0.00 0.00 78 1013.6
20260510135708 65 49 0.0 0.0 0.00 0.00 0.00 82 1013.8
20260510135204 65 49 0.0 0.0 0.00 0.00 0.00 80 1013.9
20260510134701 65 49 0.0 0.0 0.00 0.00 0.00 82 1013.8
20260510134159 64 49 0.0 1.0 0.00 0.00 0.00 83 1014.0
20260510133654 63 49 0.0 0.0 0.00 0.00 0.00 84 1013.6
20260510133150 63 49 0.0 0.0 0.00 0.00 0.00 89 1013.6
20260510132647 61 49 0.0 0.0 0.00 0.00 0.00 90 1013.9
20260510132144 59 49 0.0 0.0 0.00 0.00 0.00 95 1013.6
20260510131641 58 49 0.0 0.0 0.00 0.00 0.00 97 1013.8
20260510131139 57 49 0.0 0.0 0.00 0.00 0.00 98 1013.7
20260510130635 56 49 0.0 0.0 0.00 0.00 0.00 99 1013.7
20260510130133 55 49 0.0 0.0 0.00 0.00 0.00 99 1013.6
20260510125629 54 49 0.0 0.0 0.00 0.00 0.00 99 1013.8
20260510125125 54 49 0.0 0.0 0.00 0.00 0.00 99 1013.7
20260510124622 53 49 0.0 0.0 0.00 0.00 0.00 99 1013.8
20260510124119 52 49 0.0 0.0 0.00 0.00 0.00 99 1013.7
20260510123614 52 49 0.0 0.0 0.00 0.00 0.00 99 1013.7
20260510123111 51 49 0.0 0.0 0.00 0.00 0.00 99 1013.8
20260510122601 51 49 0.0 0.0 0.00 0.00 0.00 99 1013.8
20260510122057 50 49 0.0 0.0 0.00 0.00 0.00 99 1013.9
20260510121554 49 49 0.0 0.0 0.00 0.00 0.00 99 1013.7
20260510121052 49 49 0.0 0.0 0.00 0.00 0.00 99 1013.7
20260510120550 48 49 0.0 0.0 0.00 0.00 0.00 99 1013.5
20260510120049 48 49 0.0 0.0 0.00 0.00 0.00 99 1013.6
20260510115547 47 49 0.0 0.0 0.00 0.00 0.00 99 1013.5
20260510115044 47 49 0.0 1.0 0.00 0.00 0.00 99 1013.7
20260510114539 47 49 0.0 0.0 0.00 0.00 0.00 99 1013.5
20260510114036 47 49 0.0 0.0 0.00 0.00 0.00 99 1013.5
20260510113531 47 49 0.0 0.0 0.00 0.00 0.00 99 1013.3
20260510113029 46 49 0.0 0.0 0.00 0.00 0.00 99 1012.9
20260510112525 46 49 0.0 0.0 0.00 0.00 0.00 99 1013.0
20260510112022 46 49 0.0 0.0 0.00 0.00 0.00 99 1012.8
20260510111519 46 49 0.0 0.0 0.00 0.00 0.00 99 1012.9
20260510111014 46 49 0.0 0.0 0.00 0.00 0.00 99 1012.5
20260510110511 46 49 0.0 0.0 0.00 0.00 0.00 99 1012.8
20260510110007 46 49 0.0 0.0 0.00 0.00 0.00 99 1012.8
20260510105502 46 49 0.0 0.0 0.00 0.00 0.00 99 1012.4
20260510104958 46 49 0.0 0.0 0.00 0.00 0.00 99 1012.4
20260510104454 46 49 0.0 0.0 0.00 0.00 0.00 99 1012.3
20260510103951 46 49 0.0 0.0 0.00 0.00 0.00 99 1012.5
20260510103448 45 49 0.0 0.0 0.00 0.00 0.00 99 1012.3
20260510102943 46 49 0.0 0.0 0.00 0.00 0.00 99 1012.4
20260510102439 46 49 0.0 0.0 0.00 0.00 0.00 99 1012.4
20260510101936 46 49 0.0 0.0 0.00 0.00 0.00 99 1012.2
20260510101434 46 49 0.0 0.0 0.00 0.00 0.00 99 1012.2
20260510100932 46 49 0.0 0.0 0.00 0.00 0.00 99 1012.1
20260510100428 46 49 0.0 0.0 0.00 0.00 0.00 99 1011.9
20260510095924 46 49 0.0 0.0 0.00 0.00 0.00 99 1011.8
20260510095420 46 49 0.0 0.0 0.00 0.00 0.00 99 1011.9
20260510094919 46 49 0.0 0.0 0.00 0.00 0.00 99 1011.6
20260510094414 46 49 0.0 0.0 0.00 0.00 0.00 99 1011.5
20260510093911 46 49 0.0 0.0 0.00 0.00 0.00 99 1011.7
20260510093406 46 49 0.0 0.0 0.00 0.00 0.00 99 1011.7
20260510092903 46 49 0.0 0.0 0.00 0.00 0.00 99 1011.7
20260510092400 46 49 0.0 0.0 0.00 0.00 0.00 99 1011.8
20260510091855 46 49 0.0 0.0 0.00 0.00 0.00 99 1011.7
20260510091352 46 49 0.0 0.0 0.00 0.00 0.00 99 1011.7
20260510090849 46 49 0.0 0.0 0.00 0.00 0.00 99 1011.7
20260510090345 46 49 0.0 0.0 0.00 0.00 0.00 99 1011.4
20260510085841 46 49 0.0 0.0 0.00 0.00 0.00 99 1011.4
20260510085336 47 49 0.0 0.0 0.00 0.00 0.00 99 1011.5
20260510084832 47 49 0.0 0.0 0.00 0.00 0.00 99 1011.2
20260510084330 47 49 0.0 0.0 0.00 0.00 0.00 99 1011.2
20260510083826 47 49 0.0 0.0 0.00 0.00 0.00 99 1011.2
20260510083323 47 49 0.0 0.0 0.00 0.00 0.00 99 1011.2
20260510082818 47 49 0.0 0.0 0.00 0.00 0.00 99 1011.1
20260510082315 47 49 0.0 0.0 0.00 0.00 0.00 99 1011.2
20260510081814 47 49 0.0 0.0 0.00 0.00 0.00 99 1011.2
20260510081310 47 49 0.0 0.0 0.00 0.00 0.00 99 1011.3
20260510080806 47 49 0.0 0.0 0.00 0.00 0.00 99 1011.3
20260510080301 47 49 0.0 0.0 0.00 0.00 0.00 99 1010.9
20260510075758 47 49 0.0 0.0 0.00 0.00 0.00 99 1011.0
20260510075256 47 49 0.0 0.0 0.00 0.00 0.00 99 1010.8
20260510074753 47 49 0.0 0.0 0.00 0.00 0.00 99 1010.8
20260510074249 47 49 0.0 0.0 0.00 0.00 0.00 99 1010.9
20260510073745 47 49 0.0 0.0 0.00 0.00 0.00 99 1010.9
20260510073241 47 49 0.0 0.0 0.00 0.00 0.00 99 1010.8
20260510072737 47 49 0.0 0.0 0.00 0.00 0.00 99 1010.9
20260510072234 48 49 0.0 0.0 0.00 0.00 0.00 99 1010.7
20260510071731 48 49 0.0 0.0 0.00 0.00 0.00 99 1011.0
20260510071227 48 49 0.0 0.0 0.00 0.00 0.00 99 1011.0
20260510070726 48 49 0.0 0.0 0.00 0.00 0.00 99 1011.0
20260510070223 48 49 0.0 0.0 0.00 0.00 0.00 99 1010.9
20260510065717 48 49 0.0 0.0 0.00 0.00 0.00 99 1011.0
20260510065214 48 49 0.0 0.0 0.00 0.00 0.00 99 1010.9
20260510064710 48 49 0.0 0.0 0.00 0.00 0.00 99 1010.9
20260510064208 48 49 0.0 0.0 0.00 0.00 0.00 99 1011.0
20260510063705 48 49 0.0 0.0 0.00 0.00 0.00 99 1010.9
20260510063201 48 49 0.0 0.0 0.00 0.00 0.00 99 1010.9
20260510062657 48 49 0.0 0.0 0.00 0.00 0.00 99 1010.9
20260510062153 48 49 0.0 0.0 0.00 0.00 0.00 99 1010.9
20260510061648 48 49 0.0 0.0 0.00 0.00 0.00 99 1010.9
20260510061146 48 49 0.0 0.0 0.00 0.00 0.00 99 1011.1
20260510060642 49 49 0.0 0.0 0.00 0.00 0.00 99 1011.2
20260510060139 49 49 0.0 0.0 0.00 0.00 0.00 99 1011.1
20260510055635 49 49 0.0 0.0 0.00 0.00 0.00 99 1011.1
20260510055134 49 49 0.0 0.0 0.00 0.00 0.00 99 1011.1
20260510054629 49 49 0.0 0.0 0.00 0.00 0.00 99 1011.1
20260510054125 49 49 0.0 0.0 0.00 0.00 0.00 99 1011.1
20260510053624 49 49 0.0 0.0 0.00 0.00 0.00 99 1011.1
20260510053121 49 49 0.0 0.0 0.00 0.00 0.00 99 1010.9
20260510052617 49 49 0.0 0.0 0.00 0.00 0.00 99 1011.2
20260510052114 49 49 0.0 0.0 0.00 0.00 0.00 99 1011.2
20260510051609 49 49 0.0 0.0 0.00 0.00 0.00 99 1011.4
20260510051106 49 49 0.0 0.0 0.00 0.00 0.00 99 1011.4
20260510050603 49 49 0.0 0.0 0.00 0.00 0.00 99 1011.4
20260510050100 50 49 0.0 0.0 0.00 0.00 0.00 99 1011.2
20260510045557 50 49 0.0 0.0 0.00 0.00 0.00 99 1011.4
20260510045053 50 49 0.0 0.0 0.00 0.00 0.00 99 1011.5
20260510044550 50 49 0.0 0.0 0.00 0.00 0.00 99 1011.5
20260510044048 50 49 0.0 0.0 0.00 0.00 0.00 99 1011.5
20260510043543 50 49 0.0 0.0 0.00 0.00 0.00 99 1011.4
20260510043039 50 49 0.0 0.0 0.00 0.00 0.00 99 1011.6
20260510042538 50 49 0.0 0.0 0.00 0.00 0.00 99 1011.3
20260510042033 50 49 0.0 0.0 0.00 0.00 0.00 99 1011.5
20260510041531 50 49 0.0 0.0 0.00 0.00 0.00 99 1011.2
20260510041028 51 49 0.0 0.0 0.00 0.00 0.00 99 1011.4
20260510040525 51 49 0.0 0.0 0.00 0.00 0.00 99 1011.3
20260510040021 51 49 0.0 0.0 0.00 0.00 0.00 99 1011.5
20260510035518 51 49 0.0 0.0 0.00 0.00 0.00 99 1011.3
20260510035016 51 49 0.0 0.0 0.00 0.00 0.00 99 1011.3
20260510034516 51 49 0.0 0.0 0.00 0.00 0.00 99 1011.1
20260510034012 51 49 0.0 0.0 0.00 0.00 0.00 99 1011.2
20260510033508 51 49 0.0 0.0 0.00 0.00 0.00 99 1011.1
20260510033007 52 49 0.0 0.0 0.00 0.00 0.00 99 1011.2
20260510032503 52 49 0.0 0.0 0.00 0.00 0.00 98 1011.2
20260510032003 52 49 0.0 0.0 0.00 0.00 0.00 98 1011.2
20260510031458 52 49 0.0 0.0 0.00 0.00 0.00 98 1011.1
20260510030954 52 49 0.0 0.0 0.00 0.00 0.00 98 1011.0
20260510030450 52 49 0.0 0.0 0.00 0.00 0.00 98 1010.8
20260510025947 53 49 0.0 0.0 0.00 0.00 0.00 98 1011.0
20260510025445 53 49 0.0 0.0 0.00 0.00 0.00 98 1010.8
20260510024942 53 49 0.0 0.0 0.00 0.00 0.00 97 1010.7
20260510024438 53 49 0.0 0.0 0.00 0.00 0.00 97 1010.5
20260510023934 53 49 0.0 0.0 0.00 0.00 0.00 97 1010.7
20260510023430 53 49 0.0 0.0 0.00 0.00 0.00 97 1010.8
20260510022928 54 49 0.0 0.0 0.00 0.00 0.00 97 1010.8
20260510022427 54 49 0.0 0.0 0.00 0.00 0.00 96 1010.5
20260510021926 54 49 0.0 0.0 0.00 0.00 0.00 96 1010.3
20260510021424 54 49 0.0 0.0 0.00 0.00 0.00 95 1010.0
20260510020920 54 49 0.0 0.0 0.00 0.00 0.00 95 1010.1
20260510020415 55 49 0.0 0.0 0.00 0.00 0.00 95 1009.9
20260510015911 55 49 0.0 0.0 0.00 0.00 0.00 95 1010.0
20260510015407 55 49 0.0 0.0 0.00 0.00 0.00 94 1010.1
20260510014908 55 49 0.0 0.0 0.00 0.00 0.00 93 1009.9
20260510014406 55 49 0.0 0.0 0.00 0.00 0.00 93 1009.9
20260510013902 56 49 0.0 0.0 0.00 0.00 0.00 92 1009.9
20260510013357 56 49 0.0 0.0 0.00 0.00 0.00 92 1010.0
20260510012852 56 49 0.0 0.0 0.00 0.00 0.00 92 1009.7
20260510012347 56 49 0.0 0.0 0.00 0.00 0.00 91 1009.6
20260510011842 57 49 0.0 0.0 0.00 0.00 0.00 90 1009.7
20260510011337 57 49 0.0 0.0 0.00 0.00 0.00 89 1009.6
20260510010834 58 49 0.0 0.0 0.00 0.00 0.00 89 1009.6
20260510010331 58 49 0.0 0.0 0.00 0.00 0.00 88 1009.4
20260510005828 58 49 0.0 0.0 0.00 0.00 0.00 87 1009.4
20260510005324 59 49 0.0 0.0 0.00 0.00 0.00 86 1009.3
20260510004822 59 49 0.0 0.0 0.00 0.00 0.00 85 1009.2
20260510004319 60 49 0.0 0.0 0.00 0.00 0.00 86 1008.9
20260510003817 60 49 0.0 0.0 0.00 0.00 0.00 84 1009.1
20260510003314 61 49 0.0 0.0 0.00 0.00 0.00 84 1009.1
20260510002812 61 49 0.0 0.0 0.00 0.00 0.00 83 1009.0
20260510002310 62 49 0.0 0.0 0.00 0.00 0.00 81 1008.5
20260510001806 63 49 0.0 0.0 0.00 0.00 0.00 80 1008.8
20260510001305 64 49 0.0 0.0 0.00 0.00 0.00 78 1008.8
20260510000800 65 49 0.0 0.0 0.00 0.00 0.00 69 1008.7
20260510000258 65 49 0.0 0.0 0.00 0.00 0.00 67 1008.5
20260509235755 66 48 0.0 0.0 0.00 0.00 0.00 67 1008.8
20260509235251 66 49 0.0 1.0 0.00 0.00 0.00 67 1008.8
20260509234747 66 49 0.0 1.0 0.00 0.00 0.00 66 1008.4
20260509234244 67 48 0.0 0.0 0.00 0.00 0.00 65 1008.4
20260509233742 67 49 0.0 1.0 0.00 0.00 0.00 66 1008.5
20260509233240 67 49 2.0 2.0 0.00 0.00 0.00 64 1008.7
20260509232735 67 48 0.0 0.0 0.00 0.00 0.00 64 1008.5
20260509232233 68 48 1.0 2.0 0.00 0.00 0.00 64 1008.7
20260509231729 67 219 1.0 1.0 0.00 0.00 0.00 64 1008.5
20260509231226 68 219 0.0 0.0 0.00 0.00 0.00 64 1008.3
20260509230724 68 219 0.0 2.0 0.00 0.00 0.00 64 1008.4
20260509230221 67 219 0.0 0.0 0.00 0.00 0.00 64 1008.2
20260509225716 67 219 0.0 0.0 0.00 0.00 0.00 64 1008.3
20260509225212 68 219 0.0 1.0 0.00 0.00 0.00 63 1008.5
20260509224708 68 219 2.0 3.0 0.00 0.00 0.00 62 1008.3
20260509224206 68 74 0.0 1.0 0.00 0.00 0.00 65 1008.2
20260509223703 69 74 0.0 1.0 0.00 0.00 0.00 62 1008.3
20260509223159 69 353 0.0 1.0 0.00 0.00 0.00 63 1008.4
20260509222656 68 353 1.0 1.0 0.00 0.00 0.00 65 1008.5
20260509222151 68 353 0.0 1.0 0.00 0.00 0.00 64 1008.4
20260509221647 68 353 0.0 0.0 0.00 0.00 0.00 63 1008.4
20260509221143 68 353 0.0 1.0 0.00 0.00 0.00 62 1008.7
20260509220639 68 353 0.0 1.0 0.00 0.00 0.00 64 1008.5
20260509220135 68 39 0.0 2.0 0.00 0.00 0.00 64 1008.8
20260509215632 69 39 0.0 3.0 0.00 0.00 0.00 62 1008.7
20260509215128 69 245 2.0 3.0 0.00 0.00 0.00 63 1008.7
20260509214626 68 245 0.0 1.0 0.00 0.00 0.00 62 1008.7
20260509214122 68 245 0.0 1.0 0.00 0.00 0.00 63 1008.5
20260509213619 68 245 0.0 3.0 0.00 0.00 0.00 61 1008.7
20260509213115 69 45 2.0 2.0 0.00 0.00 0.00 63 1008.9
20260509212613 69 55 2.0 2.0 0.00 0.00 0.00 61 1008.9
20260509212110 69 283 0.0 1.0 0.00 0.00 0.00 63 1008.7
20260509211605 69 283 1.0 2.0 0.00 0.00 0.00 62 1008.7
20260509211102 69 10 2.0 3.0 0.00 0.00 0.00 64 1008.7
20260509210559 68 296 1.0 1.0 0.00 0.00 0.00 63 1008.9
20260509210055 69 140 0.0 1.0 0.00 0.00 0.00 59 1008.8
20260509205549 69 306 0.0 1.0 0.00 0.00 0.00 61 1008.5
20260509205045 69 306 0.0 1.0 0.00 0.00 0.00 62 1008.8
20260509204542 69 306 0.0 0.0 0.00 0.00 0.00 61 1008.7
20260509204038 69 287 0.0 2.0 0.00 0.00 0.00 63 1008.5
20260509203534 69 16 0.0 1.0 0.00 0.00 0.00 59 1008.7
20260509203033 69 271 0.0 4.0 0.00 0.00 0.00 61 1008.4
20260509202532 68 256 0.0 0.0 0.00 0.00 0.00 63 1008.3
20260509202028 68 256 0.0 1.0 0.00 0.00 0.00 62 1008.5
20260509201523 68 256 0.0 1.0 0.00 0.00 0.00 61 1008.4
20260509201021 68 256 1.0 2.0 0.00 0.00 0.00 61 1008.2
20260509200521 69 283 0.0 2.0 0.00 0.00 0.00 60 1008.3
20260509200018 69 262 2.0 2.0 0.00 0.00 0.00 60 1008.2
20260509195514 69 124 0.0 2.0 0.00 0.00 0.00 62 1008.2
20260509195013 68 125 1.0 1.0 0.00 0.00 0.00 59 1008.5
20260509194509 68 281 0.0 1.0 0.00 0.00 0.00 59 1008.3
20260509194007 68 281 0.0 4.0 0.00 0.00 0.00 60 1008.7
20260509193506 69 356 0.0 3.0 0.00 0.00 0.00 58 1008.4
20260509193003 70 356 2.0 3.0 0.00 0.00 0.00 58 1008.3
20260509192459 69 121 3.0 3.0 0.00 0.00 0.00 57 1008.5
20260509191954 69 304 2.0 4.0 0.00 0.00 0.00 58 1008.4
20260509191450 70 319 4.0 6.0 0.00 0.00 0.00 58 1008.7
20260509190946 69 49 1.0 3.0 0.00 0.00 0.00 64 1008.3
20260509190443 69 69 2.0 4.0 0.00 0.00 0.00 57 1008.5
20260509185941 69 281 2.0 3.0 0.00 0.00 0.00 60 1008.4
20260509185438 69 270 2.0 6.0 0.00 0.00 0.00 59 1008.7
20260509184934 69 221 2.0 2.0 0.00 0.00 0.00 60 1008.7
20260509184432 69 125 1.0 4.0 0.00 0.00 0.00 57 1008.7
20260509183928 69 348 2.0 4.0 0.00 0.00 0.00 60 1008.5
20260509183423 69 260 3.0 3.0 0.00 0.00 0.00 60 1008.8
20260509182920 68 276 0.0 3.0 0.00 0.00 0.00 64 1008.5
20260509182416 67 276 1.0 3.0 0.00 0.00 0.00 63 1008.8
20260509181914 67 292 2.0 3.0 0.00 0.00 0.00 62 1008.7
20260509181411 67 254 1.0 2.0 0.00 0.00 0.00 63 1009.1
20260509180908 67 2 2.0 3.0 0.00 0.00 0.00 64 1009.0
20260509180404 67 10 0.0 1.0 0.00 0.00 0.00 69 1008.9
20260509175901 67 10 0.0 1.0 0.00 0.00 0.00 63 1009.0
20260509175357 67 279 2.0 3.0 0.00 0.00 0.00 61 1008.9
20260509174853 67 268 0.0 1.0 0.00 0.00 0.00 63 1008.7
20260509174350 68 350 1.0 3.0 0.00 0.00 0.00 64 1009.0
20260509173845 67 342 0.0 2.0 0.00 0.00 0.00 66 1008.9
20260509173341 67 341 1.0 2.0 0.00 0.00 0.00 64 1009.0
20260509172837 67 303 2.0 3.0 0.00 0.00 0.00 60 1009.1
20260509172334 68 235 5.0 6.0 0.00 0.00 0.00 59 1009.2
20260509171830 68 239 3.0 3.0 0.00 0.00 0.00 58 1009.3
20260509171325 67 21 2.0 4.0 0.00 0.00 0.00 63 1009.2
20260509170822 66 308 0.0 1.0 0.00 0.00 0.00 60 1009.3
20260509170318 66 293 3.0 3.0 0.00 0.00 0.00 64 1009.2
20260509165818 66 298 1.0 3.0 0.00 0.00 0.00 63 1009.4
20260509165312 66 198 1.0 4.0 0.00 0.00 0.00 62 1009.1
20260509164809 66 11 0.0 2.0 0.00 0.00 0.00 66 1009.4
20260509164305 66 325 2.0 2.0 0.00 0.00 0.00 65 1009.2
20260509163802 65 265 1.0 2.0 0.00 0.00 0.00 65 1009.5
20260509163259 65 274 0.0 1.0 0.00 0.00 0.00 66 1009.5
20260509162758 65 349 0.0 2.0 0.00 0.00 0.00 66 1009.5
20260509162256 65 275 1.0 1.0 0.00 0.00 0.00 65 1009.6
20260509161753 65 356 0.0 1.0 0.00 0.00 0.00 66 1009.4
20260509161249 65 356 1.0 1.0 0.00 0.00 0.00 69 1009.4
20260509160744 64 356 0.0 1.0 0.00 0.00 0.00 68 1009.4
20260509160241 64 348 0.0 1.0 0.00 0.00 0.00 67 1009.5
20260509155736 64 348 0.0 1.0 0.00 0.00 0.00 68 1009.5
20260509155233 64 348 0.0 2.0 0.00 0.00 0.00 66 1009.4
20260509154729 64 348 0.0 1.0 0.00 0.00 0.00 69 1009.6
20260509154226 63 348 0.0 0.0 0.00 0.00 0.00 74 1009.4
20260509153724 63 348 0.0 0.0 0.00 0.00 0.00 69 1009.4